METAR AND TAF INFORMATION
METAR FOR SBMT
ADDS - METARS form results

(1042 UTC 20 July 2019)
Data provider http://aviationweather.gov/metar/data/
 
METAR text: SBMT 201000Z 07007KT CAVOK 13/11 Q1025
Conditions at: SBMT (MARTE (CIV/MIL) , BR) observed 1000 UTC 20 July 2019
Temperature: 13.0°C (55°F)
Dewpoint: 11.0°C (52°F) [RH = 88%]
Pressure (altimeter): 30.27 inches Hg (1025.0 mb)
Winds: from the ENE (70 degrees) at 8 MPH (7 knots; 3.6 m/s)
Visibility: 6 or more miles (10+ km)
Ceiling: ceiling and visibility are OK
Clouds: unknown
Weather: no significant weather observed at this time

 AIRPORT MAP

 RUNWAY INFORMATION
Runway 12 Runway length 5249 ft Runway width 147 ft
Runway elevation 2379 ft Runway displaced threshold 984 ft Runway heading 100
Runway 30 Runway length 5249 ft Runway width 147 ft
Runway elevation 2376 ft Runway displaced threshold 492 ft Runway heading 280

 AIRPORT FREQUENCIES
Type APP Name SAO PAULO Frequency 119.8 MHZ
Type GND Name GND Frequency 121.6 MHZ
Type OPS Name OPS Frequency 122.5 MHZ
Type TWR Name TWR Frequency 118.7 MHZ

 AIRPORT NEAR NAVIGATION AIDS
Type NDB Name Marte Frequency 260 KHZ



Powered by Virtual Airlines Manager [v2.6.2]